#timestamp,LO_Frequency,Hit,StdDev 
1691762415.4,286046998.9,N
1691762435.3,286046998.9,N
1691762455.1,286047001.2,N
1691762475.9,286047000.7,N
1691762495.7,286047000.5,N
1691762515.5,286047000.8,N
1691762535.4,286047000.7,N
1691762555.2,286046998.6,N
1691762575.0,286046999.4,N
1691762575.9,286046999.4,N
1691762595.8,286046998.8,N
1691762615.6,286046998.8,N
1691762635.5,286046998.4,N
1691762655.3,286046998.2,N
1691762675.1,286047001.0,N
1691762695.9,286047000.9,N
1691762715.7,286047000.1,N
1691762735.6,286047002.1,N
1691762755.4,286047004.0,Y
1691762775.2,286047004.2,P
1691762795.1,286047001.5,N
1691762796.0,286047001.5,N
1691762815.8,286047001.4,N
1691762865.7,286047002.4,E
1691762875.6,286047000.9,N
1691762895.4,286046997.2,P
1691762915.3,286046997.4,N
1691762935.1,286046996.6,N
1691762955.9,286046999.0,N
1691762975.7,286046998.9,N
1691762995.5,286046997.2,N
1691763015.4,286046999.0,N
1691763035.2,286046996.7,N
1691763055.0,286046997.0,N
1691763056.0,286046997.0,N
1691763075.8,286046999.1,N
1691763095.6,286046998.4,N
1691763115.5,286046996.5,N
1691763135.3,286046996.5,N
1691763155.1,286046996.9,N
1691763175.9,286046998.9,N
1691763195.7,286046998.5,N
1691763215.5,286046998.9,N
1691763235.4,286046997.2,N
1691763255.2,286046997.1,N
1691763275.1,286046997.2,N
1691763276.0,286046997.2,N
1691763295.8,286046996.9,N
1691763315.6,286046997.4,N
1691763335.5,286046997.1,N
1691763355.3,286046997.1,N
1691763375.2,286046997.9,N
1691763425.9,286046995.2,E
1691763435.8,286046996.7,N
1691763455.7,286047001.0,P
1691763475.5,286047002.5,N
1691763495.4,286047002.7,N
1691763515.2,286047001.9,N
1691763535.0,286047002.8,N
1691763535.9,286047002.8,N
1691763555.8,286047002.3,N
1691763575.6,286047004.0,N
1691763595.4,286047003.8,N
1691763615.3,286047003.1,N
1691763635.1,286047003.5,N
1691763655.9,286047003.1,N
1691763675.7,286047003.0,N
1691763695.5,286047005.9,Y
1691763715.4,286047004.2,P
1691763735.2,286047001.9,N
1691763755.0,286047002.5,N
1691763756.0,286047002.5,N
1691763775.8,286047001.9,N
1691763795.6,286047002.7,Y
1691763815.5,286046998.6,P
1691763835.3,286046999.5,N
1691763855.1,286046997.0,N
1691763875.9,286046996.7,N
1691763895.7,286046997.3,N
1691763915.6,286046997.3,N
1691763935.4,286046996.9,N
1691763955.2,286046997.3,N
1691763975.1,286046996.5,N
1691763976.0,286046996.5,N
1691763995.8,286046999.3,N
1691764015.6,286046997.0,N
1691764035.5,286046999.5,N
1691764055.3,286046999.2,N
1691764075.1,286046998.8,N
1691764095.9,286047000.9,N
1691764115.7,286047000.3,N
1691764135.6,286047000.1,N
1691764155.4,286047001.0,N
1691764175.2,286046998.3,N
1691764195.1,286046998.6,N
1691764196.0,286046998.6,N
1691764215.8,286046996.8,N
1691764235.6,286046997.8,N
1691764255.5,286046996.9,N
1691764275.3,286046997.5,N
1691764295.2,286046997.1,N
1691764315.9,286046998.4,N
1691764335.7,286046999.0,N
1691764355.6,286047000.9,N
1691764375.4,286047000.9,N
1691764395.3,286046998.3,N
1691764415.1,286046997.0,N
1691764416.0,286046997.0,N
1691764435.8,286046997.1,N
1691764455.7,286046996.6,N
1691764475.5,286046997.3,N
1691764495.3,286046996.8,N
1691764515.2,286046999.1,N
1691764535.0,286046999.3,N
1691764535.9,286046999.3,N
1691764555.8,286046999.6,N
1691764575.6,286046997.1,N
1691764595.4,286046999.4,N
1691764615.3,286047002.4,N
1691764635.1,286047000.9,N
1691764655.9,286047000.9,N
1691764675.7,286047000.9,N
1691764695.5,286047000.6,N
1691764715.4,286046998.2,N
1691764735.2,286046998.1,N
1691764755.0,286046998.1,N
1691764755.9,286046998.1,N
1691764775.8,286047000.3,N
1691764795.6,286047001.0,N
1691764815.5,286047000.9,N
1691764835.3,286046998.2,N
1691764855.1,286046998.7,N
1691764875.9,286047000.9,N
1691764895.7,286046998.1,N
1691764915.5,286047000.4,N
1691764935.4,286047002.2,N
1691764955.2,286047002.7,N
1691764975.1,286047002.7,N
1691764976.0,286047002.7,N
1691764995.8,286047002.1,N
1691765015.6,286047002.2,N
1691765035.5,286047002.1,N
1691765055.3,286047002.6,N
1691765075.2,286047000.1,N
1691765095.9,286047002.3,N
1691765115.7,286047000.0,N
1691765135.6,286047000.0,N
1691765155.4,286047002.7,N
1691765175.3,286047002.8,N
1691765195.1,286047000.5,N
1691765196.0,286047000.5,N
1691765215.8,286047001.5,N
1691765235.7,286047002.1,N
1691765255.5,286047000.0,N
1691765275.3,286046999.8,N
1691765295.2,286047002.0,N
1691765315.0,286047002.1,N
1691765315.9,286047002.1,N
1691765335.8,286047000.0,N
1691765355.6,286047000.0,N
1691765375.4,286047002.7,N
1691765395.3,286047001.9,N
1691765415.1,286047000.3,N
1691765435.8,286047000.3,N
1691765455.7,286047000.7,N
1691765475.5,286047000.6,N
1691765495.4,286047001.1,N
1691765515.2,286046998.1,N
1691765535.0,286047001.2,N
1691765535.9,286047001.2,N
1691765555.8,286047001.2,N
1691765575.6,286047000.9,N
1691765595.4,286047000.5,N
1691765615.3,286047000.8,N
1691765635.1,286047000.1,N
1691765655.9,286047001.2,N
1691765675.7,286046998.2,N
1691765695.5,286046998.3,N
1691765715.4,286046998.8,N
1691765735.2,286046999.4,N
1691765755.0,286046996.6,N
1691765756.0,286046996.6,N
1691765775.8,286046996.6,N
1691765795.6,286046997.4,N
1691765815.5,286046997.1,N
1691765835.3,286046996.7,N
1691765855.1,286046996.5,N
1691765875.9,286046994.9,N
1691765895.7,286046997.8,N
1691765915.6,286046997.2,N
1691765935.4,286046997.7,N
1691765955.2,286046997.5,N
1691765975.1,286046997.3,N
1691765976.0,286046997.3,N
1691765995.8,286046997.8,N
